TimeEST,TemperatureF,Dew PointF,Humidity,Sea Level PressureIn,VisibilityMPH,Wind Direction,Wind SpeedMPH,Gust SpeedMPH,PrecipitationIn,Events,Conditions,WindDirDegrees,DateUTC
12:16 AM,33.8,32.0,93,29.91,10.0,Calm,Calm,-,N/A,,Overcast,0,2011-12-07 05:16:00
12:38 AM,33.8,32.0,93,29.90,5.0,Calm,Calm,-,N/A,,Overcast,0,2011-12-07 05:38:00
12:51 AM,33.1,32.0,96,29.95,7.0,Calm,Calm,-,N/A,,Overcast,0,2011-12-07 05:51:00
1:05 AM,33.8,33.8,100,29.90,1.8,Calm,Calm,-,N/A,,Overcast,0,2011-12-07 06:05:00
1:48 AM,33.8,33.8,100,29.86,0.8,Calm,Calm,-,N/A,,Mist,0,2011-12-07 06:48:00
1:51 AM,33.8,33.8,100,29.86,0.5,Calm,Calm,-,N/A,Fog,Fog,0,2011-12-07 06:51:00
2:51 AM,33.1,33.1,100,29.92,0.5,Calm,Calm,-,N/A,Fog,Fog,0,2011-12-07 07:51:00
3:21 AM,33.8,33.8,100,29.87,1.0,Calm,Calm,-,N/A,,Overcast,0,2011-12-07 08:21:00
3:34 AM,33.8,33.8,100,29.88,0.8,Calm,Calm,-,N/A,,Overcast,0,2011-12-07 08:34:00
3:51 AM,34.0,33.1,96,29.93,0.5,Calm,Calm,-,N/A,Fog,Fog,0,2011-12-07 08:51:00
4:51 AM,34.0,33.1,96,29.91,0.8,Calm,Calm,-,N/A,,Overcast,0,2011-12-07 09:51:00
5:23 AM,33.8,33.8,100,29.86,1.0,Calm,Calm,-,N/A,,Overcast,0,2011-12-07 10:23:00
5:51 AM,33.1,32.0,96,29.91,1.2,Calm,Calm,-,N/A,,Overcast,0,2011-12-07 10:51:00
6:01 AM,33.8,32.0,93,29.87,3.0,SW,4.6,-,N/A,,Overcast,230,2011-12-07 11:01:00
6:51 AM,32.0,32.0,100,29.93,8.0,Calm,Calm,-,N/A,,Overcast,0,2011-12-07 11:51:00
7:30 AM,32.0,32.0,100,29.87,2.5,Calm,Calm,-,N/A,,Overcast,0,2011-12-07 12:30:00
7:46 AM,32.0,32.0,100,29.86,6.0,Calm,Calm,-,N/A,,Overcast,0,2011-12-07 12:46:00
7:51 AM,32.0,30.9,96,29.91,7.0,Calm,Calm,-,N/A,,Overcast,0,2011-12-07 12:51:00
8:12 AM,32.0,30.2,93,29.87,1.8,Calm,Calm,-,N/A,,Overcast,0,2011-12-07 13:12:00
8:38 AM,32.0,32.0,100,29.86,0.8,Calm,Calm,-,N/A,,Overcast,0,2011-12-07 13:38:00
8:51 AM,32.0,32.0,100,29.91,0.8,Calm,Calm,-,N/A,,Overcast,0,2011-12-07 13:51:00
9:04 AM,32.0,32.0,100,29.86,1.2,Calm,Calm,-,N/A,,Overcast,0,2011-12-07 14:04:00
9:28 AM,33.8,32.0,93,29.85,3.0,Calm,Calm,-,N/A,,Overcast,0,2011-12-07 14:28:00
9:51 AM,33.1,32.0,96,29.88,6.0,Calm,Calm,-,N/A,,Overcast,0,2011-12-07 14:51:00
10:51 AM,34.0,32.0,92,29.88,10.0,Calm,Calm,-,N/A,,Overcast,0,2011-12-07 15:51:00
11:46 AM,35.6,32.0,87,29.78,10.0,Calm,Calm,-,N/A,,Overcast,0,2011-12-07 16:46:00
11:51 AM,35.1,32.0,89,29.83,10.0,Calm,Calm,-,N/A,,Overcast,0,2011-12-07 16:51:00
12:51 PM,34.0,32.0,92,29.82,10.0,NNW,4.6,-,N/A,,Overcast,330,2011-12-07 17:51:00
1:20 PM,33.8,33.8,100,29.76,10.0,NNW,3.5,-,N/A,,Overcast,340,2011-12-07 18:20:00
1:51 PM,34.0,32.0,92,29.78,10.0,Calm,Calm,-,N/A,,Overcast,0,2011-12-07 18:51:00
2:51 PM,34.0,32.0,92,29.77,10.0,Calm,Calm,-,N/A,,Overcast,0,2011-12-07 19:51:00
3:51 PM,33.1,32.0,96,29.76,10.0,Calm,Calm,-,N/A,,Overcast,0,2011-12-07 20:51:00
4:51 PM,33.1,32.0,96,29.74,10.0,Calm,Calm,-,N/A,,Overcast,0,2011-12-07 21:51:00
5:40 PM,32.0,30.2,93,29.68,2.0,NNW,4.6,-,N/A,,Overcast,340,2011-12-07 22:40:00
5:51 PM,32.0,30.9,96,29.74,1.5,NNW,3.5,-,0.00,Snow,Light Snow,340,2011-12-07 22:51:00
6:05 PM,32.0,32.0,100,29.70,2.5,Calm,Calm,-,0.00,Snow,Light Snow,0,2011-12-07 23:05:00
6:40 PM,32.0,30.2,93,29.70,3.0,Variable,3.5,-,0.00,Snow,Light Snow,0,2011-12-07 23:40:00
6:51 PM,32.0,30.9,96,29.73,5.0,North,3.5,-,0.00,,Overcast,350,2011-12-07 23:51:00
7:51 PM,30.9,30.0,96,29.73,4.0,Calm,Calm,-,0.00,Snow,Light Snow,0,2011-12-08 00:51:00
8:19 PM,30.2,28.4,93,29.66,1.8,Variable,3.5,-,0.00,Snow,Light Snow,0,2011-12-08 01:19:00
8:51 PM,30.0,28.0,92,29.73,1.2,Variable,5.8,-,0.02,Snow,Light Snow,0,2011-12-08 01:51:00
9:17 PM,28.4,26.6,93,29.67,1.2,Variable,5.8,-,0.00,Snow,Light Snow,0,2011-12-08 02:17:00
9:27 PM,28.4,26.6,93,29.67,1.5,North,4.6,-,0.00,Snow,Light Snow,350,2011-12-08 02:27:00
9:31 PM,28.4,26.6,93,29.67,2.0,NNW,4.6,-,0.00,Snow,Light Snow,340,2011-12-08 02:31:00
9:51 PM,28.0,26.1,92,29.71,1.8,Variable,3.5,-,0.00,Snow,Light Snow,0,2011-12-08 02:51:00
10:06 PM,26.6,24.8,93,29.67,1.5,Calm,Calm,-,0.00,Snow,Light Snow,0,2011-12-08 03:06:00
10:22 PM,26.6,24.8,93,29.68,1.8,Variable,5.8,-,0.00,Snow,Light Snow,0,2011-12-08 03:22:00
10:51 PM,26.1,23.0,88,29.71,2.5,North,5.8,-,0.01,Snow,Light Snow,350,2011-12-08 03:51:00
11:01 PM,26.6,23.0,86,29.66,3.0,Variable,5.8,-,0.00,Snow,Light Snow,0,2011-12-08 04:01:00
11:14 PM,26.6,23.0,86,29.66,1.8,NNW,5.8,-,0.00,Snow,Light Snow,340,2011-12-08 04:14:00
11:18 PM,26.6,23.0,86,29.66,1.2,NNW,3.5,-,0.00,Snow,Light Snow,330,2011-12-08 04:18:00
11:37 PM,24.8,21.2,86,29.67,3.0,NNW,5.8,-,0.00,Snow,Light Snow,330,2011-12-08 04:37:00
11:51 PM,25.0,21.0,85,29.73,4.0,Variable,6.9,-,0.00,Snow,Light Snow,0,2011-12-08 04:51:00